Regional Weather Roundup
Issued by NWS Portland, ME

Current Version | Previous Version | Text Only | Print | Product List | Glossary Off
Versions: 1 2 3 4 5 6 7 8 9 10 11 12 13 14 15 16 17 18 19 20 21 22 23 24 25 26 27 28 29 30 31 32 33 34 35 36 37 38 39 40 41 42 43 44 45 46 47 48 49 50
000 ASUS41 KGYX 212210 RWRGYX WEATHER ROUNDUP FOR MAINE AND NEW HAMPSHIRE NATIONAL WEATHER SERVICE GRAY ME 600 PM EDT THU MAR 21 2019 MEZ002-005-006-010-012-015-018-020-021-024-026-027-029-212300- MAINE CITY SKY/WX TMP DP RH WIND PRES REMARKS PORTLAND CLOUDY 41 30 65 S10 30.08F SANFORD FAIR 42 25 50 SE8 30.05F BAR HARBOR FAIR 39 27 62 S10 30.14F WISCASSET FAIR 40 30 67 VRB5 30.11F ROCKLAND FAIR 39 31 72 SE6 30.12F FRYEBURG CLOUDY 43 28 55 S6 30.03F LEWISTONAUBURN CLOUDY 41 27 57 SE9 30.07F AUGUSTA CLOUDY 41 24 51 S9 30.08F WATERVILLE MOCLDY 42 23 46 S10G17 30.05F BANGOR MOCLDY 41 25 53 S14G26 30.11F GREENVILLE N/A 39 19 44 S10G20 29.98F MILLINOCKET CLOUDY 45 18 34 MISG 30.04R HOULTON CLOUDY 43 20 39 S12G26 30.02R PRESQUE ISLE FAIR 42 22 44 S15 29.99F FRENCHVILLE CLOUDY 44 24 45 S6 29.92F CARIBOU FAIR 43 23 45 S14G21 29.96F $$ NHZ002-005-008-009-011-012-014-212300- NEW HAMPSHIRE CITY SKY/WX TMP DP RH WIND PRES REMARKS PORTSMOUTH CLOUDY 41 30 64 SE14 30.04F ROCHESTER MOCLDY 43 25 49 SE5 30.03F NASHUA MOCLDY 48 24 39 VRB3 30.02F MANCHESTER CLOUDY 48 25 40 SE12 30.00F CONCORD CLOUDY 47 28 47 SE6 30.00F LACONIA CLOUDY 45 28 51 E5 30.01F PLYMOUTH CLOUDY 44 28 52 CALM 30.00F BERLIN CLOUDY 42 23 46 SE17 29.96F WHITEFIELD CLOUDY 45 23 42 S8 29.95F JAFFREY CLOUDY 43 29 57 SE3 29.99F KEENE CLOUDY 41 35 79 CALM 30.00F LEBANON CLOUDY 42 32 67 SW3 29.99F MT WASHINGTON FOG 21 21 100 SW26 N/A VSB 1/8 WCI 4 $$ VTZ005-007-008-212300- VERMONT CITY SKY/WX TMP DP RH WIND PRES REMARKS ST JOHNSBURY N/A 44 28 53 MISG 29.94F MONTPELIER CLOUDY 39 32 76 S16 29.99 BURLINGTON CLOUDY 44 35 70 S10 29.93F $$ MAZ007-012-024-CTZ003-RIZ002-NYZ038-NYZ072-212300- SOUTHERN NEW ENGLAND AND NY CITY SKY/WX TMP DP RH WIND PRES REMARKS BOSTON CLOUDY 44 35 70 E14 30.04F WORCESTER CLOUDY 42 30 62 SE9 29.99F NANTUCKET FAIR 42 35 76 E14 30.03F PROVIDENCE CLOUDY 46 35 65 SE8 30.02F HARTFORD CLOUDY 47 32 56 SE13 29.98F ALBANY CLOUDY 42 35 76 SE6 29.96F NEW YORK CITY LGT RAIN 41 38 89 NE17 29.87F $$ ANZ081-ANZ082-ANZ150-NHZ014-MEZ023>029-212300- COASTAL MARINE OBSERVATIONS STATION/POSITION TIME TEMP WIND PRES WAVE AIR SEA DIR/SP/G HT/PER (UTC) (F) (DEG/KT/KT) (MB) (FT/S) MOUNT DESERT ROC 2200 39 140/ 11/ 12 1020.9F CASHES LEDGE BUO 2050 41 40 1020.7 3/ 5 $$ .............KEY.............. WCI - WIND CHILL TC - TEMPERATURE IN CELSIUS VSB - VISIBILITY IN MILES HX - HEAT INDEX FAIR- INDICATES FEW OR NO CLOUDS BELOW 12,000 FT, WITH NO SIGNIFICANT WEATHER AND/OR OBSTRUCTIONS TO VISIBILITY.

USA.gov is the U.S. government's official web portal to all federal, state and local government web resources and services.